Location: Albany
(35.0000°S, 118.0000°E)
Time: 22:00:28
(UTC-04:00)

JAS-1B - Visible Passes

Search period start: 14 September 2014 00:00
Search period end: 24 September 2014 00:00
Orbit: 911 x 1744 km, 99.1° (Epoch: 14 September)

Date Brightness Start Highest point End Pass type
(mag) Time Alt. Az. Time Alt. Az. Time Alt. Az.
14 Sep 9.9 13:35:19 13° S 13:35:19 13° S 13:35:57 10° S visible
15 Sep 10.1 12:02:14 10° SSE 12:02:14 10° SSE 12:02:16 10° SSE visible
15 Sep 9.8 13:54:28 13° SSW 13:54:28 13° SSW 13:55:05 10° SSW visible
16 Sep 10.0 12:21:22 13° SSE 12:21:22 13° SSE 12:22:20 10° SSE visible
16 Sep 9.8 14:13:37 12° SSW 14:13:37 12° SSW 14:14:05 10° SSW visible
17 Sep 9.8 12:40:31 15° SSE 12:40:31 15° SSE 12:42:01 10° S visible
17 Sep 9.8 14:32:46 11° SSW 14:32:46 11° SSW 14:32:55 10° SSW visible
18 Sep 9.7 12:59:40 17° S 12:59:40 17° S 13:01:31 10° S visible
19 Sep 9.6 13:18:49 19° S 13:18:49 19° S 13:20:51 10° S visible
20 Sep 10.0 11:45:44 12° SSE 11:45:44 12° SSE 11:46:39 10° SSE visible
20 Sep 9.5 13:37:59 19° S 13:37:59 19° S 13:40:04 10° S visible
21 Sep 9.9 12:04:53 15° SSE 12:04:53 15° SSE 12:06:58 10° SSE visible
21 Sep 9.5 13:57:08 19° SSW 13:57:08 19° SSW 13:59:09 10° SSW visible
22 Sep 9.7 12:24:03 19° SSE 12:24:03 19° SSE 12:26:47 10° S visible
22 Sep 9.5 14:16:18 17° SSW 14:16:18 17° SSW 14:18:06 10° SSW visible
23 Sep 9.5 12:43:13 22° SSE 12:43:13 22° SSE 12:46:22 10° S visible
23 Sep 9.6 14:35:27 15° SSW 14:35:27 15° SSW 14:36:54 10° SSW visible
